Theta_e
328 330 331 329 328 328 329 335 339 340 339 340 340 340 339 337 337 339 339 338 340 339 335 331 330 331 328 328 330 327 324 325 327 326 328 329 327 322 320 321 324 326 326 326
329 331 329 327 328 332 334 337 340 341 338 339 340 340 339 336 337 338 338 339 340 338 334 331 332 332 329 327 328 326 324 326 327 327 326 329 326 321 320 323 325 326 326 326
330 330 327 327 329 333 335 338 341 340 338 338 340 340 338 338 338 338 337 339 338 336 336 331 333 333 329 328 330 329 327 327 327 327 327 329 325 321 320 324 325 326 327 326
329 327 327 329 330 329 332 332 339 340 339 341 339 341 340 340 340 338 337 338 336 335 336 336 332 334 331 327 328 331 331 328 327 326 328 329 328 321 322 322 323 327 327 326
330 328 329 330 329 327 332 335 338 337 340 340 340 341 340 338 339 339 338 337 337 336 337 337 338 335 336 330 329 332 331 327 327 327 327 327 329 321 321 322 326 328 327 327
328 325 327 329 331 330 333 336 336 335 337 341 338 342 339 338 338 338 337 337 337 337 336 335 337 339 338 336 331 332 331 332 328 328 328 327 328 324 323 324 326 328 328 327
329 329 327 328 335 333 334 340 341 341 341 341 337 341 340 338 336 337 338 337 337 337 337 336 335 336 336 338 333 333 332 331 330 331 328 332 333 328 325 327 326 328 329 328
330 330 329 330 333 335 337 337 338 340 337 338 338 343 339 337 335 336 337 337 337 338 337 337 337 336 335 335 338 332 333 331 333 332 329 329 332 331 327 327 330 329 329 328
331 330 327 329 332 333 334 335 332 338 335 340 340 340 338 336 336 337 338 338 338 337 335 335 335 334 335 335 336 335 333 336 333 334 329 328 329 330 331 330 328 330 326 326
331 331 327 331 331 331 333 331 336 336 343 341 341 342 340 339 339 340 339 338 337 336 335 335 336 336 336 337 338 340 340 339 336 336 333 330 328 330 331 331 331 330 330 328
329 332 330 330 334 334 334 336 334 336 338 342 338 337 339 339 339 340 337 336 335 336 336 335 336 333 332 331 332 335 336 337 338 338 336 331 329 331 332 331 331 331 329 329
329 334 331 335 331 331 333 336 336 337 340 339 340 340 336 337 337 337 336 336 337 335 334 334 334 333 332 331 332 333 335 336 338 336 332 331 327 329 331 328 328 328 328 328
330 335 336 337 335 332 335 334 332 334 339 343 340 338 336 336 337 336 336 337 336 335 334 334 335 332 331 331 330 334 335 336 336 332 330 328 331 332 331 328 329 329 329 328
332 337 337 331 334 335 336 334 333 336 340 339 339 340 339 339 340 338 338 336 335 334 334 334 334 334 334 333 331 334 335 332 331 329 329 330 329 329 330 330 330 330 329 326
339 341 335 334 334 334 334 334 334 335 335 338 339 338 341 340 340 338 337 335 334 333 335 335 334 336 335 332 332 334 334 333 331 330 330 330 330 332 332 329 331 330 329 325
334 341 337 338 335 334 334 335 336 335 336 337 339 340 339 338 336 337 337 335 334 333 336 336 336 336 334 331 333 334 332 330 329 328 328 328 328 328 329 329 329 329 328 328
340 341 339 338 336 334 336 335 335 339 338 338 341 339 339 338 336 337 336 335 334 335 335 337 337 335 333 332 334 334 331 329 328 328 329 328 328 327 326 326 328 329 329 328
341 341 337 338 336 339 335 334 335 337 342 339 339 340 339 337 336 336 335 335 335 335 337 337 335 334 331 332 333 332 330 327 329 326 325 324 325 322 320 319 318 316 319 320
335 338 340 340 338 335 335 336 337 341 341 340 340 339 338 335 334 335 333 332 333 334 336 334 330 329 332 331 332 332 330 329 327 323 322 322 321 321 315 314 315 314 313 314
334 337 340 337 340 336 338 334 338 337 344 341 339 338 337 334 335 332 331 332 333 335 334 331 330 330 331 333 333 331 330 330 323 321 318 317 317 316 314 313 312 313 313 313
337 338 339 337 338 338 336 336 335 344 339 337 339 339 338 336 333 331 331 333 334 334 332 331 332 327 330 331 332 329 329 327 321 318 318 317 317 316 314 313 314 315 315 315
334 338 338 337 339 338 333 335 340 341 334 335 339 338 337 335 331 331 333 334 334 333 330 331 332 326 325 327 330 327 326 320 319 319 318 318 315 312 312 311 313 315 314 315
335 335 337 337 338 334 335 339 337 338 339 336 338 336 335 333 332 332 333 333 334 332 330 330 332 323 322 322 325 326 326 323 321 320 315 313 313 311 309 311 310 311 314 314
333 332 340 341 340 337 336 336 334 334 336 337 337 337 335 333 333 333 333 332 333 331 330 332 329 322 325 323 324 324 325 325 323 314 315 313 312 312 312 314 316 317 316 316
336 335 340 340 337 336 336 335 335 336 336 336 337 336 336 334 333 333 333 332 333 329 331 331 326 324 325 325 324 326 326 325 323 316 316 314 315 315 314 313 314 315 315 316
334 338 337 336 335 336 336 332 332 334 335 337 337 336 335 334 334 333 334 333 331 329 332 330 324 325 327 327 326 325 323 322 320 320 317 316 317 317 317 318 319 319 318 317
Wind_Speed
4 2 5 10 4 2 5 3 2 1 2 3 3 4 4 6 7 5 1 1 1 4 2 7 10 16 19 13 4 10 20 21 20 16 11 11 12 13 11 11 11 11 10 9
1 2 2 6 1 3 3 4 3 1 1 2 4 8 5 6 1 3 5 3 6 7 3 4 9 12 15 15 9 5 16 19 17 15 11 11 11 13 12 11 11 11 11 9
3 2 2 2 4 4 2 7 6 2 1 4 7 3 2 2 4 6 4 1 3 9 3 3 6 10 15 13 10 5 8 15 16 15 13 13 13 14 14 12 11 11 10 11
4 1 3 8 2 3 7 4 3 6 3 2 5 4 1 1 7 2 3 2 5 8 7 4 5 6 10 10 7 3 5 13 17 18 16 16 15 16 14 13 12 11 9 9
3 3 3 7 2 3 2 7 9 5 4 4 3 4 2 2 5 6 3 2 4 7 10 7 8 8 7 9 7 4 5 12 17 17 18 18 19 17 16 14 12 11 10 11
6 2 3 1 5 4 12 15 9 3 1 3 2 2 3 4 4 5 5 9 8 9 12 11 10 11 10 10 7 4 3 9 17 16 19 21 21 19 18 16 15 13 12 11
3 1 2 2 6 3 3 7 3 2 3 3 1 4 5 5 3 5 10 14 12 12 13 15 15 12 13 14 8 2 2 5 15 13 16 22 21 17 19 18 15 13 14 13
1 4 1 2 1 3 7 1 3 4 3 1 3 3 2 3 12 10 9 12 12 14 16 16 17 19 18 15 13 8 6 11 13 13 17 18 15 16 19 20 18 16 17 16
3 3 1 2 2 1 4 5 3 5 1 2 1 3 5 1 5 9 10 12 15 17 19 20 20 20 18 12 7 13 17 19 17 17 11 16 14 14 12 17 19 20 18 17
4 3 0 2 4 9 2 6 2 1 3 3 2 4 3 3 5 8 13 17 18 17 18 20 22 23 23 21 14 9 18 20 20 19 20 16 16 15 10 10 16 18 18 18
5 2 1 2 2 1 3 2 4 2 2 2 2 2 4 3 3 7 11 12 13 15 17 20 20 23 23 24 21 16 15 16 17 16 17 18 17 15 13 7 13 16 17 17
3 3 3 1 2 2 1 1 3 3 3 1 3 2 3 3 0 3 9 10 12 14 16 15 17 19 22 22 21 19 16 15 14 12 13 16 17 17 13 9 11 14 16 17
8 2 2 2 2 2 2 2 3 3 0 6 4 2 3 4 7 7 9 9 11 12 15 15 14 15 15 18 20 15 13 12 10 12 15 11 12 12 11 12 12 16 16 14
9 3 3 5 1 1 2 3 3 3 3 3 7 4 5 5 5 6 7 8 9 10 12 13 12 12 11 17 17 15 11 10 13 12 13 11 8 11 12 13 16 15 13 11
2 3 2 1 2 4 3 5 6 8 5 5 5 6 6 6 4 5 6 5 6 10 9 11 10 11 12 16 15 10 10 11 13 10 11 12 12 10 9 12 14 14 14 12
2 3 2 2 3 2 4 6 6 7 4 7 3 5 5 5 4 4 3 3 6 9 8 9 9 10 12 14 8 7 9 10 9 10 11 12 14 14 11 10 14 14 16 20
1 4 4 3 3 0 6 9 9 3 5 4 7 3 11 7 5 3 2 1 5 7 8 8 8 10 11 9 4 7 10 10 11 11 9 10 13 15 13 11 6 6 9 12
4 3 1 2 3 3 2 1 3 6 7 10 3 8 13 6 5 3 2 3 5 6 6 7 7 9 9 5 4 6 8 7 9 10 11 11 9 9 9 7 6 4 3 5
2 4 2 2 4 4 5 4 5 6 5 12 11 11 10 5 3 4 6 5 4 6 6 5 6 6 3 4 5 5 6 4 6 8 9 9 7 6 10 9 10 10 10 10
6 4 2 3 3 5 4 3 6 4 7 15 15 14 12 9 4 2 8 6 4 4 4 4 4 5 5 6 6 6 5 3 6 4 6 6 7 9 11 11 12 12 12 12
2 2 3 3 4 7 5 8 7 4 3 5 18 17 15 7 7 4 8 7 5 4 4 3 6 8 6 7 7 9 5 3 3 4 6 8 10 12 13 13 13 14 14 14
3 4 3 2 3 7 10 8 7 1 2 6 17 18 18 15 11 12 10 9 6 5 4 5 7 8 7 7 6 7 4 4 5 6 8 10 12 13 14 13 13 14 15 15
3 3 1 6 4 2 12 4 11 3 1 7 17 21 19 17 18 16 13 10 8 7 7 6 7 7 6 6 6 6 6 6 7 9 9 11 13 14 15 15 14 12 13 14
2 3 3 2 2 8 14 17 21 10 11 10 15 21 20 22 21 18 14 12 12 9 8 7 7 6 6 7 8 9 9 8 8 8 10 12 13 13 14 14 14 14 15 16
2 6 3 5 12 12 13 15 17 17 22 19 16 20 22 22 23 21 17 15 12 11 9 8 9 6 5 8 10 10 10 9 9 8 10 10 12 15 15 15 15 15 15 17
7 4 3 6 8 6 10 14 13 11 15 16 16 19 20 22 25 23 21 16 13 11 11 10 10 8 7 8 9 10 11 9 9 9 10 11 13 15 15 16 16 16 15 16
Wind_Direction
8 306 358 342 316 163 151 162 217 132 79 283 329 283 261 301 299 264 215 12 300 341 26 63 35 27 18 19 13 230 218 219 219 221 229 247 256 236 239 240 240 242 250 266
259 218 291 321 137 139 143 179 205 232 351 314 1 310 315 347 337 267 324 344 26 22 66 61 33 19 21 25 26 249 225 227 232 230 240 261 259 238 244 239 241 249 257 263
243 285 291 345 343 258 264 228 184 260 101 95 322 262 12 42 323 327 331 222 27 23 6 13 11 14 18 22 22 351 259 244 243 242 249 268 261 244 247 245 246 249 253 256
257 226 309 330 309 212 293 295 160 144 175 322 357 329 141 345 317 5 345 267 345 353 354 299 312 339 8 16 25 16 259 247 242 247 256 268 274 253 252 255 254 251 252 245
276 257 277 308 11 224 356 112 106 91 58 318 37 292 35 344 56 31 75 33 360 5 2 338 299 304 329 348 345 299 255 253 255 259 266 273 284 266 260 258 254 244 246 246
276 293 249 65 48 116 138 104 93 91 30 270 44 321 319 5 5 334 311 310 313 330 340 340 313 308 314 314 307 335 294 289 261 264 278 279 285 278 268 262 258 255 247 249
309 282 286 143 109 172 177 157 127 208 238 278 197 220 279 292 325 315 323 334 343 339 343 345 336 315 310 286 266 266 88 326 249 270 287 281 280 265 266 268 269 262 250 253
322 181 210 123 285 221 171 256 210 209 203 298 171 241 93 348 316 301 316 329 348 358 356 353 348 343 330 299 254 252 262 282 252 268 283 277 274 258 253 261 265 264 262 264
174 257 320 64 116 254 155 214 75 107 36 251 344 259 267 53 38 26 17 5 358 357 359 357 351 359 8 4 259 238 263 296 272 272 263 276 258 253 265 255 258 262 263 259
190 269 33 82 136 58 239 122 196 116 165 234 232 277 254 310 15 17 10 0 356 9 20 24 22 23 20 16 8 290 275 289 268 274 252 289 254 245 256 270 267 266 268 265
141 219 217 247 18 308 161 182 67 97 304 214 238 217 194 195 39 9 14 27 38 39 35 31 33 25 19 10 2 349 330 321 313 318 269 287 252 247 247 276 281 263 265 266
164 142 218 105 4 279 326 146 178 257 204 229 309 250 54 247 350 39 71 60 52 42 29 21 16 15 12 5 9 4 4 7 3 341 305 290 260 262 251 250 262 256 261 261
175 186 170 148 178 168 248 127 92 95 184 208 227 193 26 145 115 76 72 58 50 30 20 19 15 18 16 2 2 8 12 10 1 329 332 313 282 257 250 252 250 262 268 258
136 137 200 249 196 114 223 196 170 186 225 186 235 157 145 146 126 103 91 62 35 18 14 10 7 12 9 0 352 355 9 9 348 337 338 330 278 285 268 260 273 277 260 252
155 169 177 192 242 199 222 237 188 210 227 250 340 214 159 175 150 124 94 56 22 9 9 360 356 8 4 356 351 11 19 357 354 352 358 353 339 320 286 273 276 279 257 244
9 146 151 187 348 248 273 265 255 250 238 235 224 215 168 187 170 130 113 46 5 358 354 350 355 1 357 353 4 26 8 4 7 358 359 23 33 26 355 313 292 277 269 266
71 148 168 210 38 280 272 259 232 215 203 204 228 230 166 191 179 164 196 357 339 342 340 341 353 348 348 346 19 17 6 10 11 8 9 3 4 3 1 11 2 304 277 271
129 111 67 116 135 228 321 258 280 249 251 215 221 172 180 175 163 180 218 275 325 336 327 341 341 342 344 7 23 12 1 10 0 2 7 4 17 41 25 9 1 351 330 288
68 131 117 216 205 304 251 204 196 206 275 209 211 180 180 147 186 241 225 281 313 316 317 326 332 347 339 351 356 355 358 354 1 2 21 31 30 12 356 0 344 331 319 310
84 78 258 156 249 281 289 178 176 166 274 201 195 180 174 169 223 266 218 251 271 274 290 301 342 351 327 335 341 347 348 359 4 25 14 3 343 332 331 329 332 332 325 317
131 102 228 197 248 276 234 163 166 203 308 194 193 187 177 196 203 192 209 224 234 252 290 287 324 333 325 329 338 338 342 334 332 5 347 330 324 320 319 317 312 315 317 312
206 175 216 142 230 269 151 137 210 205 211 234 199 197 199 209 212 223 217 223 228 255 272 280 300 320 324 327 327 335 317 321 329 313 320 317 318 321 318 315 311 308 310 309
230 245 300 218 245 337 221 290 221 168 217 228 208 207 211 218 222 220 220 227 237 244 249 277 288 302 311 318 310 309 283 291 318 324 320 321 325 326 325 328 328 332 340 330
187 169 235 283 193 260 251 260 254 261 257 279 231 213 216 222 224 225 222 234 240 243 247 271 281 280 301 316 306 300 295 285 296 312 321 329 340 342 339 339 341 336 332 326
55 162 223 248 276 283 267 265 277 265 256 263 227 227 231 229 230 231 231 239 237 244 244 265 255 249 293 324 325 309 299 292 294 306 322 331 337 338 338 338 335 332 328 324
191 194 240 289 341 305 309 336 328 286 272 255 237 232 238 235 235 236 236 237 234 243 246 249 237 242 282 311 318 312 306 299 299 312 323 325 326 327 330 333 334 335 337 342